Location: Unspecified
(0.0000°N, 0.0000°E)
Time: 17:41:23
(UTC+02:00)

Centaur D-1AR AC-41 - Visible Passes

Search period start: 06 July 2015 00:00
Search period end: 16 July 2015 00:00
Orbit: 613 x 36230 km, 21.7° (Epoch: 04 July)

Date Brightness Start Highest point End Pass type
(mag) Time Alt. Az. Time Alt. Az. Time Alt. Az.
06 Jul 5.2 12:03:30 10° WSW 21:56:56 35° N 22:00:49 21° NE visible
08 Jul 6.5 06:47:52 18° SW 07:05:08 50° SSE 16:56:21 10° ENE visible
09 Jul 6.6 04:23:35 29° SSE 04:23:35 29° SSE 14:14:09 10° ENE visible
10 Jul 5.1 23:04:04 10° WNW 23:11:14 33° NNW 23:11:14 33° NNW visible
11 Jul 6.0 10:39:02 10° WSW 20:36:44 40° N 20:45:10 10° ENE visible
13 Jul 6.3 05:34:21 34° SSW 05:40:13 41° SSE 15:36:02 10° ENE visible
14 Jul 7.3 03:10:05 13° SE 03:10:05 13° SE 03:12:37 10° ESE visible
14 Jul 7.3 03:10:07 13° SE 03:10:07 13° SE 12:44:36 10° ENE visible
15 Jul 4.7 21:35:13 10° WNW 21:54:46 39° N 21:57:19 28° NE visible
